Track STARLINK-2042 now! 10-day predictions STARLINK-2042 is classified as:
1 47658U 21012AQ 21109.91667824 .00006331 00000-0 44371-3 0 9997 2 47658 53.0547 163.7656 0001481 75.2989 30.9027 15.06385820 1756